Regional Weather Roundup
Issued by NWS Wakefield, VA

Home | Current Version | Previous Version | Text Only | Print | Product List | Glossary Off
Versions: 1 2 3 4 5 6 7 8 9 10 11 12 13 14 15 16 17 18 19 20 21 22 23 24 25 26 27 28 29 30 31 32 33 34 35 36 37 38 39 40 41 42 43 44 45 46 47 48 49 50

000
ASUS41 KAKQ 171415
RWRAKQ

REGIONAL WEATHER ROUNDUP
NATIONAL WEATHER SERVICE WAKEFIELD VA
900 AM EST TUE JAN 17 2017

Note: "fair" indicates few or no clouds below 12,000 feet with no
significant weather and/or obstructions to visibility. * = Denotes
station may not report precipitation (e.g., rain,snow,etc.),
thunder or fog.

VAZ042-051-052>054-056-171500-
NORTHERN VIRGINIA

CITY           SKY/WX    TMP DP  RH WIND       PRES   REMARKS
WASH NATIONAL  CLOUDY    43  41  93 S5        30.21R
DULLES         LGT RAIN  41  38  89 S6        30.20R
FORT BELVOIR   LGT RAIN  41  39  93 CALM      30.21R
QUANTICO       LGT RAIN  42  41  96 CALM      30.22R
FREDERICKSBRG* LGT RAIN  44  44 100 CALM      30.20R
STAFFORD*      LGT RAIN  41  41 100 CALM      30.25R
WARRENTON      LGT RAIN  42  39  89 CALM      30.18S
CULPEPER*      LGT RAIN  42  41  98 CALM      30.20S
MANASSAS*      CLOUDY   N/A N/A N/A CALM        N/A
LEESBURG*      LGT RAIN  43  43 100 MISG      30.20R
WINCHESTER     LGT RAIN  36  36 100 CALM      30.16S VSB 1
FRONT ROYAL*   CLOUDY    39  39 100 CALM      30.15S VSB 1
LURAY*         RAIN      45  45 100 CALM      30.15F
$$

VAZ048-049-060>072-079>083-171500-
CENTRAL AND SOUTH CENTRAL VIRGINIA

CITY           SKY/WX    TMP DP  RH WIND       PRES   REMARKS
RICHMOND       CLOUDY    45  43  93 S9        30.21S
CHESTERFIELD*  PTSUNNY   45  28  53 S5        30.23R
PETERSBURG*    CLOUDY    45  43  93 S3        30.23R
HANOVER        CLOUDY    45  41  86 S7        30.22R
TAPPAHANNOCK*  CLOUDY    45  45 100 S5        30.21S FOG
QUINTON*       FAIR      44  44 100 S3        30.22R FOG
CHARLOTTSVILLE LGT RAIN  42  40  92 S7        30.17R FOG
GORDONSVILLE*  CLOUDY    41  40  98 SW7       30.19R FOG
ORANGE*        LGT RAIN  41  41 100 CALM      30.20S
LOUISA*        LGT RAIN  45  43  93 SW3       30.19R
BUMPASS*       CLOUDY    42  42 100 CALM      30.20R
FARMVILLE*     DRIZZLE   45  44  97 S3        30.20R
CREWE*         CLOUDY    46  46 100 S6        30.21R
FORT PICKETT*  CLOUDY    47  44  87 S9        30.22R
CHASE CITY*    FAIR      48  46  95 MISG      30.21F
CLARKSVILLE*   CLOUDY    46  46 100 S3        30.22S
SOUTH HILL*    CLOUDY    48  46  95 S10       30.29R
LAWRENCEVILLE* CLOUDY    48  46  91 S9        30.23R
EMPORIA*       CLOUDY    46  43  87 SE5       30.26R
$$

VAZ088>098-171500-
SOUTHEAST VIRGINIA

CITY           SKY/WX    TMP DP  RH WIND       PRES   REMARKS
NORFOLK        CLOUDY    48  44  86 SW10      30.24F FOG
VIRGINIA BEACH CLOUDY    46  42  86 SW6       30.25F
NORFOLK NAVAL  CLOUDY    48  44  86 S7        30.25F FOG
WEST POINT*    CLOUDY    45  44  96 S5        30.24S
SALUDA*        CLOUDY    44  43  98 S6        30.22F
NEWPORT NEWS   CLOUDY    47  44  90 S8        30.24S FOG
LANGLEY AFB    CLOUDY    47  45  93 S8        30.24R FOG
FORT EUSTIS    CLOUDY    46  43  89 S5        30.21F FOG
WILLIAMSBURG*  CLOUDY    46  45  93 CALM      30.24S
HR EXEC AP*    CLOUDY    46  43  87 S7        30.24F
FRANKLIN*      CLOUDY    46  42  84 S6        30.26S
US460-WAKEFLD  CLOUDY    47  44  90 S5        30.24S FOG
$$

VAZ020-022-025-037-045-171500-
WEST CENTRAL AND SOUTHWEST VIRGINIA

CITY           SKY/WX    TMP DP  RH WIND       PRES   REMARKS
STAUNTON*      LGT RAIN  44  43  97 CALM      30.16F
WAYNESBORO*    CLOUDY    44  43  97 CALM      30.16S
HOT SPRINGS VA LGT RAIN  48  48 100 SW10      30.14S
LYNCHBURG      LGT RAIN  42  40  92 CALM      30.20S
DANVILLE       CLOUDY    47  45  93 W3        30.22R
SOUTH BOSTON*  PTSUNNY   48  47  95 CALM      30.21S
MARTINSVILLE   CLOUDY    49  46  90 W5        30.24R FOG
ROANOKE        RAIN      43  42  97 SE3       30.20F FOG
BLACKSBURG     RAIN      47  47 100 SE5       30.20S
DUBLIN*        RAIN      46  46 100 CALM      30.18F
MARION*        CLOUDY    46  46  97 CALM      30.20R FOG
HILLSVILLE*    CLOUDY    49  49  97 CALM      30.17S
RICHLANDS*     LGT RAIN N/A N/A N/A SE3       30.13S
WISE*          RAIN      54  54 100 SW13G21   30.13R
ABINGDON*      LGT RAIN  53  51  92 CALM      30.15R
$$

MDZ021>025-VAZ099-100-171500-
SOUTHERN MARYLAND AND THE DELMARVA PENINSULA

CITY           SKY/WX    TMP DP  RH WIND       PRES   REMARKS
PATUXENT RIVER CLOUDY    44  41  89 S5        30.21S
BAY BRIDGE APT CLOUDY    41  39  93 S7        30.21S FOG
LEONARDTOWN    CLOUDY    43  39  87 S5        30.22R
DOVER          CLOUDY    39  39 100 E6        30.20S
GEORGETOWN     CLOUDY    43  39  86 S6        30.23S
EASTON         NOT AVBL
CAMBRIDGE      CLOUDY    41  37  87 S6        30.22S
SALISBURY      CLOUDY    42  41  96 CALM      30.24R FOG
OCEAN CITY     CLOUDY    43  40  89 CALM      30.24F
WALLOPS ISLAND CLOUDY    44  42  93 S6        30.25S
ACCOMACK*      CLOUDY    46  43  90 S7        30.23F
$$

NCZ012>017-030>032-171500-
NORTH CENTRAL AND EASTERN NORTH CAROLINA

CITY           SKY/WX    TMP DP  RH WIND       PRES   REMARKS
ROANOKE RAPIDS CLOUDY    46  46 100 S5        30.26R FOG
RALEIGH        FOG       50  49  96 SW8       30.26R VSB 1/8
ELIZABETH CITY CLOUDY    46  42  86 S3        30.27F
AHOSKIE*         N/A     47  43  87 S6        30.27S
EDENTON*       CLOUDY    49  43  79 CALM      30.28S
CURRITUCK*     CLOUDY    46  46 100 CALM      30.27F
KILL DEVIL HLS NOT AVBL
MANTEO         CLOUDY    46  46  98 CALM      30.28S
CAPE HATTERAS  CLOUDY    52  47  83 CALM      30.28R
TARBORO*       NOT AVBL
GOLDSBORO      CLOUDY    49  49  99 CALM      30.27R
WASHINGTON     CLOUDY    48  45  88 CALM      30.29R FOG
GREENVILLE     CLOUDY    50  45  81 CALM      30.29R
NEW BERN       PTSUNNY   49  43  80 CALM      30.29R
WILMINGTON     CLOUDY    53  49  86 NE3       30.27S
$$

VAZ048-171500-
ELSEWHERE

CITY           SKY/WX    TMP DP  RH WIND       PRES   REMARKS
HARRISBURG PA  CLOUDY    36  31  82 CALM      30.20R HAZE
BALTIMORE      LGT RAIN  40  39  97 SE3       30.20R FOG
ANNAPOLIS      CLOUDY    41  38  89 SE6       30.21S FOG
ANDREWS AFB    CLOUDY    40  38  93 S5        30.19R
PHILADELPHIA   CLOUDY    40  33  76 S6        30.23R
HENDERSON NC   CLOUDY    47  45  91 SW8       30.23S
GREENSBORO     CLOUDY    51  50  96 SW9       30.21S FOG
ROCKY MOUNT    CLOUDY    49  48  97 S6        30.28R FOG
$$

VAZ100-171500-
MARINE

STATION/POSITION TIME  TEMP    WIND        PRES    WAVE   SWELL
                       AIR SEA DIR/SP/G            HT/PER HT/PER
                 (UTC) (F)     (DEG/KT/KT) (MB)    (FT/S) (FT/S)
CAPE MAY NJ      1348   42 40  140/  5/  7 1023.4R
LEWES DE         1348      41  190/  4/  7 1023.6R
OCEAN-CITY-INLET 1348      42  190/  4/  5 1024.3F
WACHAPREAGUE VA  1348   44 44  200/  6/  7 1023.9F
THOMAS POINT MD  1300   40 38  160/  6/  7   N/A
GOOSES REEF MD   1400   40     180/  8/  8 1023.9    1
COVE POINT MD    1348   40     190/ 11/ 12 1023.6R
SOLOMONS ISLAND  1348      40  180/  6/  8   N/A
BISHOPS HEAD MD  1348   41 40  150/  8/  8 1023.5F
PINEY POINT MD   1348          150/  7/  7   N/A
POTOMAC MD       1400   42 40  180/  6/  8 1022.3    1
CAMBRIDGE MD     1348   42 39  160/  6/ 11 1022.5F
LEWISETTA VA     1348   44 42  190/  7/  8 1022.7S
RAPPAHANNOCK LGT 1348          160/ 11/ 12 1024.0F
STINGRAY PT      1350   42     190/ 10/ 12 1023.8F
YORK RVR RNG VA  1348   43     180/ 10/ 10 1023.2F
YORKTOWN VA      1348   46 42  210/  5/  9 1023.5S
JAMESTOWN VA     1400   45 43  150/  4/  6   N/A     0
DOMINION TERM VA 1348   44     200/  4/  5 1024.2F
KIPTOPEKE VA     1348      42  160/  5/  5   N/A
CHES BAY BRIDGE  1348   44 42  190/  6/  7 1024.1F
CAPE HENRY VA    1348   45     170/  5/  8   N/A
WILLOUBY STN VA  1348   45     200/ 10/ 12 1024.8F
S CRANEY ISL VA  1348   45     190/  5/  6 1024.0F
CAPE HENRY BUOY  1342      47                N/A     2/ 9
OFFSHORE WE BUOY 1351      49                N/A     2/ 8
64NM E OF VA BCH 1250   53 55  350/  6/  6 1024.0    2/ 8   2/ 8
DUCK PIER NC     1348   45 44  290/  2/  3 1024.5R
44100 DUCK FRF   1335      46                N/A     2/ 8
44056 DUCK FRF   1330      44                N/A     2/11
OREGON INLET NC  1342   47 49  300/  2/  3 1025.3R
HATTERAS NC      1348      52   20/  2/  3 1024.8R
DIAMOND SHLS NC  1250   58 72   10/  8/ 10 1024.7    2/10   2/10
CAPE LOOKOUT NC  1300   49     360/  5/  6 1024.5R
$$



USA.gov is the U.S. government's official web portal to all federal, state and local government web resources and services.